Theta_e
279 279 279 279 278 277 277 276 276 275 274 274 273 274 274 274 273 273 273 273 273 273 273 273 275 276 280 283 292 291 291 293
278 278 278 277 276 276 274 274 274 274 273 272 272 273 273 273 272 272 273 272 272 272 272 273 274 276 278 281 284 290 290 293
277 277 277 275 275 273 273 272 273 272 272 271 271 271 271 271 272 272 271 272 271 271 272 271 272 273 276 279 280 290 289 290
276 276 275 274 273 272 271 271 271 270 270 269 269 270 270 271 271 271 271 270 270 270 270 270 272 272 275 278 280 281 290 290
275 274 273 273 271 270 270 270 269 269 268 268 268 269 269 270 270 269 269 269 269 269 270 270 271 272 274 277 278 281 286 290
275 273 271 271 270 269 269 268 268 267 267 267 268 269 269 269 268 268 268 268 269 269 269 270 270 272 273 276 277 279 282 289
275 273 272 271 270 269 267 267 268 266 266 267 267 268 267 267 266 266 267 267 267 267 268 268 270 273 275 278 278 279 281 284
272 271 270 269 269 266 266 266 266 266 265 265 266 264 265 265 264 264 264 265 266 266 267 267 269 273 275 277 278 279 281 283
270 267 268 268 267 266 266 265 265 264 263 264 263 263 263 262 262 263 264 265 266 266 267 267 269 273 275 276 278 279 280 282
268 267 267 266 265 265 264 264 263 263 263 262 262 260 260 259 260 263 264 265 265 268 268 267 267 272 274 276 276 279 280 282
268 267 266 265 264 263 263 262 261 261 261 261 260 258 258 260 261 263 264 265 267 267 269 271 269 272 275 276 275 277 279 280
266 265 264 264 263 261 261 260 261 260 260 259 258 257 260 261 261 262 263 264 264 267 269 272 272 270 275 277 277 278 280 281
265 263 263 263 261 260 259 260 259 259 256 255 256 260 261 259 260 261 261 262 264 265 267 271 274 277 276 278 280 282 282 284
262 262 262 261 260 258 259 258 257 253 252 255 258 260 260 259 260 260 261 261 262 265 266 267 272 272 278 283 284 285 285 286
261 260 260 259 259 257 257 256 252 251 254 257 258 258 259 260 261 260 260 260 263 263 263 265 268 269 272 275 278 283 285 286
260 259 258 258 257 256 255 253 251 253 256 256 257 257 259 260 260 261 262 264 263 263 263 265 264 266 274 275 275 278 285 286
259 258 257 256 256 255 252 251 249 252 254 255 256 257 258 258 258 263 265 266 266 267 268 265 268 272 273 275 277 280 285 285
257 257 256 254 254 253 251 249 248 249 253 255 256 256 256 257 256 256 259 264 264 265 268 267 268 270 271 272 276 283 285 285
256 255 253 252 251 252 249 247 247 248 253 253 254 255 255 256 256 256 255 255 256 260 266 265 266 267 268 268 266 263 266 267
253 252 252 250 250 251 249 249 247 251 252 252 252 254 255 256 256 255 255 255 255 256 261 260 263 264 264 264 258 258 259 262
Wind_Speed
5 6 5 5 6 7 7 9 11 11 10 12 12 13 14 14 18 18 17 18 18 18 18 19 18 19 18 12 15 8 6 6
6 5 3 5 6 7 6 9 12 12 13 13 14 14 15 14 17 17 18 18 19 18 18 17 16 17 17 18 19 13 8 10
5 4 6 6 6 6 6 9 11 13 14 15 15 16 16 16 18 18 19 18 18 18 18 17 17 17 17 18 15 14 12 10
4 5 5 6 6 6 6 10 12 13 14 15 16 16 17 18 19 19 19 19 19 19 18 18 16 17 18 17 17 17 10 10
4 5 5 6 6 5 9 9 12 13 14 16 16 17 18 19 19 19 18 19 19 18 18 18 16 18 19 16 17 17 17 12
6 5 6 5 5 8 9 11 12 14 15 15 17 17 18 18 19 18 18 17 19 19 18 18 16 13 16 15 15 16 17 15
6 4 5 8 9 12 11 13 13 14 15 17 18 18 19 19 19 19 19 17 18 18 18 18 14 24 27 25 15 15 15 17
2 2 6 7 10 9 12 13 13 14 15 16 17 19 19 19 19 19 18 16 18 18 17 18 17 27 28 29 17 15 16 16
1 3 4 5 6 9 11 12 14 15 15 16 18 19 19 19 19 20 17 17 17 18 18 18 16 27 27 29 19 16 17 17
4 3 2 6 8 10 11 11 13 15 17 17 18 19 19 19 20 19 18 18 17 17 17 17 18 28 28 24 16 15 16 15
4 3 5 6 8 10 11 13 14 15 18 17 17 17 18 19 19 19 17 19 16 18 18 20 18 28 29 24 13 16 13 15
5 5 5 6 8 11 11 12 15 16 17 17 16 17 16 18 17 17 18 18 16 18 16 19 15 19 29 28 16 12 11 12
3 4 5 7 8 11 12 14 14 16 17 16 16 13 13 18 16 16 16 17 16 16 15 12 15 18 25 29 29 23 14 12
4 4 4 6 8 10 13 15 15 15 15 14 15 14 14 16 16 13 14 13 14 13 13 13 12 12 27 20 28 30 18 11
4 3 4 5 7 7 12 14 13 14 14 13 14 16 14 12 12 11 11 13 13 13 14 15 13 13 13 12 12 17 18 17
4 2 3 6 7 7 10 11 11 12 12 12 11 13 14 12 12 12 12 16 14 12 14 15 16 14 27 23 16 13 12 11
5 3 4 5 7 7 7 8 9 10 9 10 10 11 12 13 13 20 25 27 26 27 24 14 26 31 33 34 34 32 27 11
6 5 3 4 6 7 7 6 7 7 9 9 11 11 12 12 13 16 18 25 27 31 31 31 29 29 31 33 28 13 12 10
7 6 3 2 4 6 6 7 7 6 10 8 9 10 11 12 12 11 13 16 16 24 30 32 31 30 31 31 21 14 15 9
8 4 2 1 4 5 6 6 7 7 6 8 8 8 11 10 11 11 12 13 13 15 22 26 34 31 33 35 16 13 13 12
Wind_Direction
223 243 237 299 324 321 294 296 304 305 298 299 298 294 292 298 295 291 287 288 291 294 296 293 290 292 295 288 271 232 247 263
226 253 246 281 275 271 287 303 307 309 308 305 299 298 297 295 294 290 289 287 287 289 287 288 291 294 292 287 293 247 245 251
217 210 248 261 279 290 303 307 314 312 308 306 304 306 302 297 293 293 293 288 288 289 286 288 282 281 278 285 288 257 234 236
230 259 273 281 288 298 311 315 311 311 307 307 304 305 301 300 298 298 294 292 289 289 285 285 283 282 278 274 276 290 260 245
271 269 263 271 275 307 317 315 312 310 309 308 308 307 302 303 299 299 297 294 291 287 284 283 280 281 274 274 280 276 281 257
241 243 240 280 328 335 326 318 317 313 312 308 309 306 303 304 304 300 296 294 293 290 285 282 278 271 282 268 269 271 275 274
228 247 346 350 344 333 317 316 318 310 310 311 310 309 310 307 307 305 300 299 295 289 285 282 276 276 271 272 264 266 269 272
202 5 2 353 333 314 314 313 313 315 315 313 314 313 313 312 310 307 303 301 294 289 284 280 275 275 274 270 265 264 261 261
112 29 5 329 322 316 317 318 319 318 316 319 317 315 314 313 313 305 303 303 295 290 283 277 274 273 271 265 262 257 255 258
107 80 344 346 334 323 316 319 322 321 321 319 318 315 313 312 312 306 310 306 300 290 284 269 268 270 269 262 259 253 250 253
88 70 18 348 335 325 328 329 323 325 318 317 315 311 308 309 312 311 307 306 306 302 292 275 261 265 267 259 250 251 248 239
83 51 12 351 343 335 330 322 325 319 317 316 312 308 308 315 313 313 313 310 307 302 308 298 269 260 262 255 245 246 252 236
88 50 18 359 352 336 327 329 322 322 317 313 309 315 322 319 315 319 316 314 314 314 309 317 310 311 258 253 245 240 242 249
75 37 11 2 357 329 325 329 326 319 311 311 318 326 328 325 320 325 322 322 320 316 320 318 316 316 319 285 246 242 243 231
93 51 359 358 342 322 328 330 320 312 315 323 330 331 333 329 325 326 328 324 324 328 325 314 323 325 321 324 304 283 247 247
111 83 23 354 337 335 331 325 321 316 321 329 332 333 332 339 330 334 336 336 333 336 317 326 323 313 309 311 308 298 280 232
116 100 35 358 338 331 321 320 313 323 330 334 334 336 336 336 334 340 351 355 352 351 338 338 321 316 324 320 307 291 272 262
136 102 53 358 330 325 321 310 304 316 326 334 340 339 338 338 339 336 344 356 1 360 356 353 345 345 340 332 328 1 281 235
127 102 71 347 308 317 314 307 307 314 340 346 337 336 337 338 338 338 343 345 348 354 357 7 4 5 5 8 18 20 23 16
111 103 104 350 312 322 316 318 315 348 350 345 335 335 338 338 341 344 345 349 349 346 353 9 7 11 16 22 25 13 15 6